Location: Lac Lasalle
(46.0398°N, 74.1576°W)
Time: 06:10:38
(UTC-05:00)

ISS - Pass Details

Date: 01 November 2019
Orbit: 412 x 421 km, 51.6° (Epoch: 14 November)

Event Time Altitude Azimuth Distance (km) Brightness Sun altitude
Exits shadow 06:57:05 - 296° (WNW) 1,553 -1.5 -7.5°
Reaches altitude 10° 06:57:13 10° 297° (WNW) 1,508 -1.6 -7.4°
Maximum altitude 07:00:15 30° 1° (N) 786 -2.5 -6.9°
Drops below altitude 10° 07:03:17 10° 64° (ENE) 1,504 -0.1 -6.4°
Sets 07:05:33 0° 76° (ENE) 2,367 1.3 -6.0°
